Time,TemperatureF,DewpointF,PressureIn,WindDirection,WindDirectionDegrees,WindSpeedMPH,WindSpeedGustMPH,Humidity,HourlyPrecipIn,Conditions,Clouds,dailyrainin,SoftwareType,DateUTC
2014-04-16 00:01:00,71.5,67.4,29.93,WNW,292,7.0,11.0,87,0.00,,SKC,0.00,VWS V14.01,2014-04-16 04:01:00,
2014-04-16 00:06:00,71.4,67.3,29.94,WNW,300,9.0,9.0,87,0.00,,SKC,0.00,VWS V14.01,2014-04-16 04:06:00,
2014-04-16 00:11:00,71.4,67.3,29.94,WNW,298,1.0,10.0,87,0.00,,SKC,0.00,VWS V14.01,2014-04-16 04:11:00,
2014-04-16 00:16:00,71.3,67.2,29.94,WNW,292,4.0,10.0,87,0.00,,SKC,0.00,VWS V14.01,2014-04-16 04:16:00,
2014-04-16 00:21:00,71.3,67.2,29.94,West,274,6.0,10.0,87,0.00,,SKC,0.00,VWS V14.01,2014-04-16 04:21:00,
2014-04-16 00:26:00,71.2,67.1,29.94,North,350,5.0,11.0,87,0.00,,SKC,0.00,VWS V14.01,2014-04-16 04:26:00,
2014-04-16 00:31:00,71.2,67.1,29.94,WNW,292,6.0,11.0,87,0.00,,SKC,0.00,VWS V14.01,2014-04-16 04:31:00,
2014-04-16 00:36:00,71.1,67.0,29.94,NNW,342,1.0,3.0,87,0.00,,SKC,0.00,VWS V14.01,2014-04-16 04:36:00,
2014-04-16 00:41:00,71.2,67.1,29.94,WNW,290,3.0,6.0,87,0.00,,SKC,0.00,VWS V14.01,2014-04-16 04:41:00,
2014-04-16 00:46:00,71.2,67.1,29.94,West,263,2.0,6.0,87,0.00,,SKC,0.00,VWS V14.01,2014-04-16 04:46:00,
2014-04-16 00:51:00,71.2,67.1,29.94,NNW,336,5.0,6.0,87,0.00,,SKC,0.00,VWS V14.01,2014-04-16 04:51:00,
2014-04-16 00:56:00,71.1,67.0,29.94,NW,320,0.0,7.0,87,0.00,,SKC,0.00,VWS V14.01,2014-04-16 04:56:00,
2014-04-16 01:01:00,71.1,67.0,29.94,WNW,292,0.0,7.0,87,0.00,,SKC,0.00,VWS V14.01,2014-04-16 05:01:00,
2014-04-16 01:06:00,70.9,66.5,29.94,WSW,249,7.0,7.0,86,0.00,,SKC,0.00,VWS V14.01,2014-04-16 05:06:00,
2014-04-16 01:11:00,70.7,66.7,29.94,West,280,5.0,8.0,87,0.00,,SKC,0.00,VWS V14.01,2014-04-16 05:11:00,
2014-04-16 01:16:00,70.7,66.7,29.94,NW,313,4.0,8.0,87,0.00,,SKC,0.00,VWS V14.01,2014-04-16 05:16:00,
2014-04-16 01:21:00,70.7,66.3,29.94,West,280,3.0,8.0,86,0.00,,SKC,0.00,VWS V14.01,2014-04-16 05:21:00,
2014-04-16 01:26:00,70.7,66.0,29.94,WNW,302,2.0,8.0,85,0.00,,SKC,0.00,VWS V14.01,2014-04-16 05:26:00,
2014-04-16 01:31:00,70.8,66.1,29.94,WNW,284,2.0,8.0,85,0.00,,SKC,0.00,VWS V14.01,2014-04-16 05:31:00,
2014-04-16 01:36:00,71.0,66.6,29.94,WNW,287,1.0,2.0,86,0.00,,SKC,0.00,VWS V14.01,2014-04-16 05:36:00,
2014-04-16 01:41:00,71.0,66.6,29.94,WNW,296,0.0,4.0,86,0.00,,SKC,0.00,VWS V14.01,2014-04-16 05:41:00,
2014-04-16 01:46:00,70.9,66.5,29.94,WNW,290,0.0,4.0,86,0.00,,SKC,0.00,VWS V14.01,2014-04-16 05:46:00,
2014-04-16 01:51:00,70.9,66.5,29.94,NNW,336,2.0,4.0,86,0.00,,SKC,0.00,VWS V14.01,2014-04-16 05:51:00,
2014-04-16 01:56:00,70.8,66.4,29.93,NW,309,1.0,4.0,86,0.00,,SKC,0.00,VWS V14.01,2014-04-16 05:56:00,
2014-04-16 02:01:00,70.7,66.3,29.93,NW,318,0.0,4.0,86,0.00,,SKC,0.00,VWS V14.01,2014-04-16 06:01:00,
2014-04-16 02:06:00,70.7,66.3,29.93,NW,326,3.0,4.0,86,0.00,,SKC,0.00,VWS V14.01,2014-04-16 06:06:00,
2014-04-16 02:11:00,70.5,65.8,29.93,NNE,29,0.0,4.0,85,0.00,,SKC,0.00,VWS V14.01,2014-04-16 06:11:00,
2014-04-16 02:16:00,70.4,65.7,29.93,WNW,286,0.0,5.0,85,0.00,,SKC,0.00,VWS V14.01,2014-04-16 06:16:00,
2014-04-16 02:21:00,70.4,66.0,29.93,North,360,4.0,5.0,86,0.00,,SKC,0.00,VWS V14.01,2014-04-16 06:21:00,
2014-04-16 02:26:00,70.4,65.7,29.93,WNW,292,1.0,5.0,85,0.00,,SKC,0.00,VWS V14.01,2014-04-16 06:26:00,
2014-04-16 02:31:00,70.3,65.9,29.93,North,11,1.0,5.0,86,0.00,,SKC,0.00,VWS V14.01,2014-04-16 06:31:00,
2014-04-16 02:36:00,70.3,65.9,29.93,NW,322,2.0,5.0,86,0.00,,SKC,0.00,VWS V14.01,2014-04-16 06:36:00,
2014-04-16 02:41:00,70.3,65.6,29.93,SSW,192,0.0,8.0,85,0.00,,SKC,0.00,VWS V14.01,2014-04-16 06:41:00,
2014-04-16 02:46:00,70.3,65.6,29.93,NNW,344,0.0,8.0,85,0.00,,SKC,0.00,VWS V14.01,2014-04-16 06:46:00,
2014-04-16 02:51:00,70.2,65.5,29.93,NNE,24,4.0,8.0,85,0.00,,SKC,0.00,VWS V14.01,2014-04-16 06:51:00,
2014-04-16 02:56:00,70.1,65.4,29.93,NW,309,3.0,8.0,85,0.00,,SKC,0.00,VWS V14.01,2014-04-16 06:56:00,
2014-04-16 03:01:00,70.0,65.3,29.93,NNW,348,3.0,8.0,85,0.00,,SKC,0.00,VWS V14.01,2014-04-16 07:01:00,
2014-04-16 03:06:00,69.9,65.2,29.93,West,281,7.0,9.0,85,0.00,,SKC,0.00,VWS V14.01,2014-04-16 07:06:00,
2014-04-16 03:11:00,69.8,65.1,29.94,NW,309,2.0,9.0,85,0.00,,SKC,0.00,VWS V14.01,2014-04-16 07:11:00,
2014-04-16 03:16:00,69.7,64.7,29.94,NW,317,4.0,9.0,84,0.00,,SKC,0.00,VWS V14.01,2014-04-16 07:16:00,
2014-04-16 03:21:00,69.7,64.7,29.94,West,279,2.0,9.0,84,0.00,,SKC,0.00,VWS V14.01,2014-04-16 07:21:00,
2014-04-16 03:26:00,69.6,64.6,29.94,WNW,291,2.0,9.0,84,0.00,,SKC,0.00,VWS V14.01,2014-04-16 07:26:00,
2014-04-16 03:31:00,69.5,64.5,29.94,NW,326,0.0,9.0,84,0.00,,SKC,0.00,VWS V14.01,2014-04-16 07:31:00,
2014-04-16 03:36:00,69.4,64.4,29.94,North,349,3.0,6.0,84,0.00,,SKC,0.00,VWS V14.01,2014-04-16 07:36:00,
2014-04-16 03:41:00,69.4,64.4,29.94,WNW,291,3.0,6.0,84,0.00,,SKC,0.00,VWS V14.01,2014-04-16 07:41:00,
2014-04-16 03:46:00,69.4,64.4,29.94,NW,319,0.0,6.0,84,0.00,,SKC,0.00,VWS V14.01,2014-04-16 07:46:00,
2014-04-16 03:51:00,69.2,64.2,29.94,NNW,334,1.0,8.0,84,0.00,,SKC,0.00,VWS V14.01,2014-04-16 07:51:00,
2014-04-16 03:56:00,69.1,64.1,29.94,NNE,22,4.0,8.0,84,0.00,,SKC,0.00,VWS V14.01,2014-04-16 07:56:00,
2014-04-16 04:01:00,68.9,63.5,29.94,North,11,1.0,11.0,83,0.00,,SKC,0.00,VWS V14.01,2014-04-16 08:01:00,
2014-04-16 04:06:00,68.8,63.8,29.94,WSW,237,7.0,8.0,84,0.00,,SKC,0.00,VWS V14.01,2014-04-16 08:06:00,
2014-04-16 04:11:00,68.8,63.8,29.94,NE,42,3.0,9.0,84,0.00,,SKC,0.00,VWS V14.01,2014-04-16 08:11:00,
2014-04-16 04:16:00,68.7,63.7,29.95,NW,311,3.0,9.0,84,0.00,,SKC,0.00,VWS V14.01,2014-04-16 08:16:00,
2014-04-16 04:21:00,68.6,63.6,29.95,North,350,4.0,9.0,84,0.00,,SKC,0.00,VWS V14.01,2014-04-16 08:21:00,
2014-04-16 04:26:00,68.6,63.6,29.95,North,351,0.0,9.0,84,0.00,,SKC,0.00,VWS V14.01,2014-04-16 08:26:00,
2014-04-16 04:31:00,68.5,63.5,29.95,North,349,6.0,9.0,84,0.00,,SKC,0.00,VWS V14.01,2014-04-16 08:31:00,
2014-04-16 04:36:00,68.3,63.3,29.95,SSW,196,2.0,7.0,84,0.00,,SKC,0.00,VWS V14.01,2014-04-16 08:36:00,
2014-04-16 04:41:00,68.4,63.4,29.95,WNW,300,2.0,7.0,84,0.00,,SKC,0.00,VWS V14.01,2014-04-16 08:41:00,
2014-04-16 04:46:00,68.4,63.4,29.95,North,351,5.0,7.0,84,0.00,,SKC,0.00,VWS V14.01,2014-04-16 08:46:00,
2014-04-16 04:51:00,68.2,63.2,29.95,NNW,339,2.0,7.0,84,0.00,,SKC,0.00,VWS V14.01,2014-04-16 08:51:00,
2014-04-16 04:56:00,68.1,63.1,29.95,North,355,3.0,9.0,84,0.00,,SKC,0.00,VWS V14.01,2014-04-16 08:56:00,
2014-04-16 05:01:00,68.1,63.1,29.95,NW,318,3.0,9.0,84,0.00,,SKC,0.00,VWS V14.01,2014-04-16 09:01:00,
2014-04-16 05:06:00,68.0,63.0,29.95,North,350,3.0,3.0,84,0.00,,SKC,0.00,VWS V14.01,2014-04-16 09:06:00,
2014-04-16 05:11:00,67.8,62.8,29.96,WNW,299,1.0,9.0,84,0.00,,SKC,0.00,VWS V14.01,2014-04-16 09:11:00,
2014-04-16 05:16:00,67.5,62.2,29.96,North,10,5.0,10.0,83,0.00,,SKC,0.00,VWS V14.01,2014-04-16 09:16:00,
2014-04-16 05:21:00,67.3,62.0,29.96,NW,318,1.0,10.0,83,0.00,,SKC,0.00,VWS V14.01,2014-04-16 09:21:00,
2014-04-16 05:26:00,67.1,61.8,29.96,NNW,342,5.0,10.0,83,0.00,,SKC,0.00,VWS V14.01,2014-04-16 09:26:00,
2014-04-16 05:31:00,67.0,62.0,29.96,NW,322,1.0,10.0,84,0.00,,SKC,0.00,VWS V14.01,2014-04-16 09:31:00,
2014-04-16 05:36:00,67.0,62.0,29.97,NNW,334,2.0,6.0,84,0.00,,SKC,0.00,VWS V14.01,2014-04-16 09:36:00,
2014-04-16 05:41:00,66.8,61.5,29.97,NW,323,6.0,10.0,83,0.00,,SKC,0.00,VWS V14.01,2014-04-16 09:41:00,